Location: Dana
(41.8364°N, 106.7042°W)
Time: 03:23:29
(UTC+00:00)

Envisat - Visible Passes

Search period start: 15 April 2026 00:00
Search period end: 25 April 2026 00:00
Orbit: 761 x 762 km, 98.4° (Epoch: 14 April)

Date Brightness Start Highest point End Pass type
(mag) Time Alt. Az. Time Alt. Az. Time Alt. Az.
15 Apr 2.9 09:43:25 10° NNE 09:48:30 79° ESE 09:48:46 76° SE visible
15 Apr 4.9 11:24:14 10° NNW 11:26:45 14° WNW 11:28:54 11° W visible
16 Apr 4.2 09:05:59 10° NNE 09:10:35 34° E 09:10:37 34° E visible
16 Apr 4.0 10:45:03 10° N 10:49:23 29° WNW 10:50:45 25° W visible
17 Apr 5.3 08:29:33 10° NE 08:32:26 15° E 08:32:27 15° E visible
17 Apr 3.0 10:06:46 10° N 10:11:47 64° WNW 10:12:36 55° WSW visible
18 Apr 3.3 09:28:59 10° NNE 09:33:59 57° E 09:34:26 55° ESE visible
18 Apr 4.6 11:09:02 10° NNW 11:12:27 18° WNW 11:14:33 15° W visible
19 Apr 4.6 08:51:49 10° NE 08:55:59 25° E 08:56:16 25° E visible
19 Apr 3.6 10:30:19 10° N 10:34:59 38° WNW 10:36:24 32° WSW visible
20 Apr 5.6 08:16:41 10° ENE 08:17:45 11° E 08:18:07 11° E visible
20 Apr 2.9 09:52:13 10° NNE 09:57:19 86° WNW 09:58:14 61° SSW visible
20 Apr 5.0 11:33:49 10° NW 11:35:26 11° WNW 11:37:02 10° WNW visible
21 Apr 3.8 09:14:39 10° NNE 09:19:26 41° E 09:20:04 40° ESE visible
21 Apr 4.3 10:54:05 10° NNW 10:58:06 24° WNW 11:00:12 19° W visible
22 Apr 5.0 08:37:52 10° NE 08:41:21 18° E 08:41:55 18° E visible
22 Apr 3.2 10:15:39 10° N 10:20:34 52° WNW 10:22:02 39° WSW visible
23 Apr 3.1 09:37:45 10° NNE 09:42:49 70° ESE 09:43:53 53° SSE visible
23 Apr 4.8 11:18:15 10° NNW 11:21:09 15° WNW 11:24:00 10° W visible
24 Apr 4.3 09:00:24 10° NE 09:04:51 30° E 09:05:43 29° ESE visible
24 Apr 3.9 10:39:16 10° N 10:43:45 32° WNW 10:45:50 23° WSW visible
